{"data":{"norad_id":59195,"intl_designator":"2024-045T","name":"STARLINK-31554","alt_names":[],"object_type":"PAYLOAD","status":"ACTIVE","operator":null,"country":"US","launch_date":"2024-03-10","launch_site_code":"AFETR","launch_vehicle":null,"mission":null,"orbit_class":"UNKNOWN","rcs_meters":null,"size_class":null,"mass_kg":null,"dimensions":null,"purposes":["comms"],"wikipedia_slug":null,"has_3d_model":false,"image_url":null,"decayed_at":null,"tle_current":{"epoch":"2026-05-24T23:01:14.356416Z","epoch_age_seconds":72605,"freshness":"FRESH","line1":"1 59195U 24045T   26144.95919394 -.00000056  00000+0  75016-5 0  9995","line2":"2 59195  43.0015  21.9993 0001346 270.9359  89.1339 15.27582433124826","mean_motion":15.27582433,"eccentricity":0.0001346,"inclination_deg":43.0015,"raan_deg":21.9993,"arg_perigee_deg":270.9359,"mean_anomaly_deg":89.1339,"bstar":7.5016e-6,"rev_number":12482,"period_min":94.2665985738,"perigee_km":482.11829610412,"apogee_km":483.96532543999,"semimajor_km":6861.1788107721,"source":"CELESTRAK","updated_at":"2026-05-25T13:38:18.862403Z"}}}